WZZ411 ENHD-EPGD

Flight info

Callsign WZZ411
Flight time 1h 27m
Altitude 35000
Route PEVEB DCT NERDO DCT PENOR N133 DOMAG T240 OGDAV
Aircraft A321/M-SDE1E2E3FGIJ1J4RWXY/LB1

Departure

Time 2026-04-22 20:02
Airport Haugesund Airport, Karmøy (ENHD)

Arrival

Time 2026-04-22 21:29
Airport Gdańsk Lech Wałęsa Airport (EPGD)
Time Latitude Longitude Altitude Speed Heading
2026-04-22 19:46 59.34443 5.21546 89 ft 0 kts 44°
2026-04-22 19:49 59.34443 5.21545 89 ft 0 kts 44°
2026-04-22 19:52 59.34426 5.21512 88 ft 4 kts 45°
2026-04-22 19:52 59.34407 5.21476 90 ft 3 kts 45°
2026-04-22 19:53 59.34404 5.21471 90 ft 0 kts 45°
2026-04-22 19:54 59.34405 5.21495 88 ft 5 kts 101°
2026-04-22 19:54 59.34388 5.21530 90 ft 0 kts 133°
2026-04-22 19:58 59.34381 5.21544 87 ft 4 kts 133°
2026-04-22 19:58 59.34361 5.21589 87 ft 7 kts 131°
2026-04-22 19:58 59.34322 5.21679 87 ft 9 kts 128°
2026-04-22 19:59 59.34284 5.21782 88 ft 10 kts 124°
2026-04-22 20:00 59.33867 5.22154 95 ft 13 kts 131°
2026-04-22 20:00 59.33822 5.22300 98 ft 13 kts 115°
2026-04-22 20:01 59.33774 5.22350 97 ft 7 kts 252°
2026-04-22 20:01 59.33801 5.22290 97 ft 6 kts 320°
2026-04-22 20:01 59.33878 5.22150 97 ft 43 kts 316°
2026-04-22 20:01 59.34271 5.21368 89 ft 115 kts 314°
2026-04-22 20:02 59.34949 5.20004 363 ft 146 kts 316°
2026-04-22 20:02 59.35623 5.18644 1250 ft 139 kts 318°
2026-04-22 20:02 59.36342 5.17297 1727 ft 150 kts 319°
2026-04-22 20:02 59.37158 5.15785 1969 ft 172 kts 321°
2026-04-22 20:03 59.38086 5.14065 2195 ft 194 kts 320°
2026-04-22 20:03 59.39135 5.12105 2401 ft 221 kts 320°
2026-04-22 20:03 59.39890 5.10703 2735 ft 229 kts 321°
2026-04-22 20:03 59.41143 5.07266 3669 ft 246 kts 291°
2026-04-22 20:04 59.41255 5.03829 4390 ft 263 kts 263°
2026-04-22 20:04 59.40426 5.00564 5158 ft 278 kts 231°
2026-04-22 20:04 59.38752 4.98538 5853 ft 293 kts 197°
2026-04-22 20:04 59.37398 4.98292 6331 ft 298 kts 174°
2026-04-22 20:05 59.35461 4.99718 7046 ft 301 kts 141°
2026-04-22 20:05 59.33907 5.02468 7758 ft 301 kts 130°
2026-04-22 20:05 59.32525 5.05572 8462 ft 304 kts 126°
2026-04-22 20:05 59.31215 5.08767 9242 ft 304 kts 127°
2026-04-22 20:06 59.29884 5.12000 9971 ft 308 kts 127°
2026-04-22 20:06 59.28510 5.15233 10684 ft 311 kts 129°
2026-04-22 20:06 59.27050 5.18566 10840 ft 334 kts 129°
2026-04-22 20:06 59.25462 5.22092 11051 ft 353 kts 130°
2026-04-22 20:07 59.23801 5.25702 11600 ft 360 kts 131°
2026-04-22 20:07 59.22109 5.29344 12257 ft 363 kts 131°
2026-04-22 20:07 59.20405 5.33008 12914 ft 366 kts 130°
2026-04-22 20:07 59.18683 5.36706 13536 ft 370 kts 131°
2026-04-22 20:08 59.16974 5.40380 14217 ft 371 kts 130°
2026-04-22 20:08 59.15229 5.44129 14791 ft 374 kts 130°
2026-04-22 20:08 59.13474 5.47887 15431 ft 375 kts 131°
2026-04-22 20:08 59.11716 5.51642 16080 ft 376 kts 131°
2026-04-22 20:09 59.09944 5.55426 16675 ft 379 kts 131°
2026-04-22 20:09 59.08167 5.59226 17304 ft 381 kts 131°
2026-04-22 20:09 59.06381 5.63047 17918 ft 382 kts 131°
2026-04-22 20:09 59.04589 5.66874 18564 ft 384 kts 131°
2026-04-22 20:10 59.02783 5.70725 19114 ft 386 kts 131°
2026-04-22 20:10 59.00972 5.74570 19658 ft 386 kts 131°
2026-04-22 20:10 58.99151 5.78423 20203 ft 388 kts 131°
2026-04-22 20:10 58.97320 5.82288 20759 ft 389 kts 131°
2026-04-22 20:11 58.95480 5.86170 21299 ft 391 kts 131°
2026-04-22 20:11 58.93640 5.90047 21869 ft 392 kts 131°
2026-04-22 20:11 58.91815 5.93894 22371 ft 394 kts 131°
2026-04-22 20:11 58.89948 5.97821 22906 ft 395 kts 131°
2026-04-22 20:12 58.88083 6.01734 23505 ft 394 kts 131°
2026-04-22 20:12 58.86211 6.05652 23922 ft 398 kts 131°
2026-04-22 20:12 58.84332 6.09577 24379 ft 398 kts 131°
2026-04-22 20:12 58.82466 6.13468 24685 ft 402 kts 131°
2026-04-22 20:13 58.80558 6.17447 25033 ft 404 kts 131°
2026-04-22 20:13 58.78642 6.21431 25482 ft 404 kts 131°
2026-04-22 20:13 58.76723 6.25410 25867 ft 406 kts 131°
2026-04-22 20:13 58.74794 6.29407 26283 ft 406 kts 131°
2026-04-22 20:14 58.72853 6.33425 26503 ft 412 kts 131°
2026-04-22 20:14 58.70915 6.37430 26796 ft 415 kts 131°
2026-04-22 20:14 58.68937 6.41508 27132 ft 417 kts 131°
2026-04-22 20:14 58.66949 6.45603 27485 ft 419 kts 131°
2026-04-22 20:15 58.64948 6.49718 27847 ft 421 kts 131°
2026-04-22 20:15 58.62961 6.53793 28180 ft 423 kts 131°
2026-04-22 20:15 58.60937 6.57935 28529 ft 425 kts 131°
2026-04-22 20:15 58.58912 6.62072 28869 ft 426 kts 131°
2026-04-22 20:16 58.56873 6.66230 29211 ft 428 kts 131°
2026-04-22 20:16 58.54818 6.70409 29538 ft 430 kts 131°
2026-04-22 20:16 58.52785 6.74536 29848 ft 432 kts 131°
2026-04-22 20:16 58.50772 6.78816 30150 ft 432 kts 126°
2026-04-22 20:17 58.49091 6.83595 30462 ft 433 kts 117°
2026-04-22 20:17 58.47798 6.88729 30738 ft 434 kts 113°
2026-04-22 20:17 58.46549 6.94008 30985 ft 436 kts 113°
2026-04-22 20:17 58.45293 6.99271 31345 ft 435 kts 113°
2026-04-22 20:18 58.44035 7.04507 31760 ft 433 kts 113°
2026-04-22 20:18 58.42769 7.09750 32159 ft 431 kts 113°
2026-04-22 20:18 58.41531 7.14871 32566 ft 429 kts 113°
2026-04-22 20:18 58.40284 7.20026 32968 ft 427 kts 113°
2026-04-22 20:19 58.39042 7.25148 33359 ft 425 kts 113°
2026-04-22 20:19 58.37800 7.30253 33749 ft 423 kts 114°
2026-04-22 20:19 58.36562 7.35322 34139 ft 421 kts 113°
2026-04-22 20:19 58.35321 7.40404 34503 ft 419 kts 114°
2026-04-22 20:20 58.34097 7.45401 34657 ft 423 kts 114°
2026-04-22 20:20 58.32849 7.50481 34768 ft 426 kts 113°
2026-04-22 20:20 58.31587 7.55604 34885 ft 429 kts 113°
2026-04-22 20:20 58.30314 7.60766 35001 ft 431 kts 113°
2026-04-22 20:21 58.29033 7.65946 35132 ft 433 kts 113°
2026-04-22 20:21 58.27749 7.71135 35246 ft 434 kts 114°
2026-04-22 20:21 58.26457 7.76337 35265 ft 434 kts 114°
2026-04-22 20:22 58.23880 7.86667 35253 ft 434 kts 114°
2026-04-22 20:22 58.21285 7.97032 35245 ft 433 kts 114°
2026-04-22 20:23 58.18710 8.07277 35246 ft 433 kts 114°
2026-04-22 20:23 58.16101 8.17595 35249 ft 434 kts 114°
2026-04-22 20:24 58.13468 8.27961 35260 ft 435 kts 114°
2026-04-22 20:24 58.10847 8.38219 35271 ft 436 kts 114°
2026-04-22 20:25 58.08204 8.48529 35286 ft 436 kts 114°
2026-04-22 20:25 58.05542 8.58868 35288 ft 436 kts 114°
2026-04-22 20:26 58.02893 8.69108 35292 ft 437 kts 114°
2026-04-22 20:26 58.00210 8.79406 35291 ft 437 kts 114°
2026-04-22 20:27 57.97524 8.89697 35290 ft 437 kts 114°
2026-04-22 20:27 57.94844 8.99925 35290 ft 437 kts 114°
2026-04-22 20:28 57.92138 9.10218 35292 ft 437 kts 114°
2026-04-22 20:28 57.89434 9.20419 35303 ft 437 kts 114°
2026-04-22 20:29 57.86804 9.30771 35294 ft 437 kts 112°
2026-04-22 20:29 57.84368 9.41163 35297 ft 437 kts 111°
2026-04-22 20:30 57.81933 9.51638 35295 ft 437 kts 111°
2026-04-22 20:30 57.79457 9.62035 35296 ft 437 kts 112°
2026-04-22 20:31 57.76956 9.72351 35298 ft 437 kts 112°
2026-04-22 20:31 57.74433 9.82703 35308 ft 437 kts 112°
2026-04-22 20:32 57.71900 9.93077 35292 ft 437 kts 112°
2026-04-22 20:32 57.69380 10.03379 35291 ft 437 kts 112°
2026-04-22 20:33 57.66840 10.13701 35300 ft 437 kts 112°
2026-04-22 20:33 57.64281 10.24049 35293 ft 437 kts 112°
2026-04-22 20:34 57.61729 10.34311 35298 ft 438 kts 112°
2026-04-22 20:34 57.59145 10.44637 35292 ft 438 kts 112°
2026-04-22 20:35 57.56574 10.54903 35291 ft 439 kts 112°
2026-04-22 20:35 57.53974 10.65224 35288 ft 439 kts 112°
2026-04-22 20:36 57.51387 10.75451 35288 ft 439 kts 112°
2026-04-22 20:36 57.48776 10.85737 35298 ft 439 kts 111°
2026-04-22 20:37 57.46148 10.96023 35289 ft 440 kts 112°
2026-04-22 20:37 57.43523 11.06253 35297 ft 440 kts 112°
2026-04-22 20:38 57.40877 11.16500 35289 ft 440 kts 112°
2026-04-22 20:38 57.38220 11.26754 35286 ft 440 kts 112°
2026-04-22 20:39 57.35560 11.36980 35277 ft 440 kts 112°
2026-04-22 20:39 57.32904 11.47130 35278 ft 440 kts 112°
2026-04-22 20:40 57.30227 11.57333 35277 ft 440 kts 112°
2026-04-22 20:40 57.27539 11.67513 35276 ft 440 kts 112°
2026-04-22 20:41 57.24862 11.77621 35275 ft 440 kts 112°
2026-04-22 20:41 57.22163 11.87792 35276 ft 440 kts 112°
2026-04-22 20:42 57.19465 11.97877 35282 ft 440 kts 112°
2026-04-22 20:42 57.16737 12.08033 35269 ft 441 kts 112°
2026-04-22 20:43 57.14021 12.18097 35261 ft 441 kts 112°
2026-04-22 20:43 57.11268 12.28247 35269 ft 442 kts 112°
2026-04-22 20:44 57.08527 12.38301 35271 ft 442 kts 112°
2026-04-22 20:44 57.05758 12.48436 35287 ft 442 kts 112°
2026-04-22 20:45 57.03005 12.58494 35270 ft 442 kts 112°
2026-04-22 20:45 57.00222 12.68611 35271 ft 443 kts 112°
2026-04-22 20:46 56.96035 12.83678 35260 ft 442 kts 112°
2026-04-22 20:46 56.93233 12.93720 35256 ft 442 kts 113°
2026-04-22 20:47 56.90440 13.03706 35273 ft 442 kts 112°
2026-04-22 20:47 56.87624 13.13719 35261 ft 443 kts 112°
2026-04-22 20:48 56.84787 13.23753 35245 ft 443 kts 112°
2026-04-22 20:48 56.81964 13.33698 35242 ft 443 kts 112°
2026-04-22 20:49 56.79117 13.43686 35236 ft 444 kts 113°
2026-04-22 20:49 56.76256 13.53666 35254 ft 444 kts 112°
2026-04-22 20:50 56.73387 13.63659 35239 ft 444 kts 112°
2026-04-22 20:50 56.70527 13.73577 35232 ft 445 kts 112°
2026-04-22 20:51 56.67635 13.83553 35232 ft 445 kts 113°
2026-04-22 20:51 56.65226 13.91827 35222 ft 445 kts 113°
2026-04-22 20:52 56.61842 14.03403 35220 ft 445 kts 113°
2026-04-22 20:52 56.59395 14.11734 35226 ft 446 kts 112°
2026-04-22 20:53 56.56488 14.21609 35223 ft 446 kts 112°
2026-04-22 20:53 56.53559 14.31523 35210 ft 446 kts 112°
2026-04-22 20:54 56.50618 14.41425 35206 ft 446 kts 113°
2026-04-22 20:54 56.47664 14.51313 35201 ft 446 kts 113°
2026-04-22 20:55 56.44700 14.61190 35214 ft 446 kts 112°
2026-04-22 20:55 56.41752 14.70984 35197 ft 447 kts 112°
2026-04-22 20:56 56.38764 14.80883 35194 ft 448 kts 113°
2026-04-22 20:56 56.35765 14.90753 35184 ft 448 kts 113°
2026-04-22 20:57 56.32775 15.00561 35144 ft 448 kts 113°
2026-04-22 20:57 56.29762 15.10410 35151 ft 448 kts 113°
2026-04-22 20:58 56.26737 15.20255 35139 ft 449 kts 113°
2026-04-22 20:58 56.23698 15.30082 35170 ft 449 kts 113°
2026-04-22 20:59 56.20670 15.39854 35168 ft 450 kts 113°
2026-04-22 20:59 56.17621 15.49681 35165 ft 450 kts 113°
2026-04-22 21:00 56.14572 15.59416 35189 ft 450 kts 113°
2026-04-22 21:00 56.11492 15.69234 35172 ft 451 kts 113°
2026-04-22 21:01 56.08408 15.79039 35168 ft 451 kts 113°
2026-04-22 21:01 56.05335 15.88756 35161 ft 451 kts 113°
2026-04-22 21:02 56.02228 15.98529 35160 ft 451 kts 114°
2026-04-22 21:02 55.99138 16.08210 35176 ft 451 kts 113°
2026-04-22 21:03 55.96027 16.17921 35150 ft 451 kts 113°
2026-04-22 21:03 55.92894 16.27665 35141 ft 452 kts 113°
2026-04-22 21:04 55.89769 16.37347 35139 ft 452 kts 113°
2026-04-22 21:04 55.86622 16.47069 35136 ft 453 kts 114°
2026-04-22 21:05 55.83456 16.56783 35140 ft 453 kts 114°
2026-04-22 21:05 55.80302 16.66439 35138 ft 453 kts 114°
2026-04-22 21:06 55.77137 16.76091 35137 ft 453 kts 114°
2026-04-22 21:06 55.73950 16.85773 35139 ft 454 kts 114°
2026-04-22 21:07 55.70765 16.95392 35142 ft 454 kts 114°
2026-04-22 21:07 55.67544 17.05069 35158 ft 455 kts 114°
2026-04-22 21:08 55.63999 17.13825 35114 ft 461 kts 129°
2026-04-22 21:08 55.61566 17.17495 34789 ft 464 kts 139°
2026-04-22 21:08 55.58728 17.20359 34243 ft 471 kts 150°
2026-04-22 21:09 55.55739 17.22724 33721 ft 469 kts 150°
2026-04-22 21:09 55.52767 17.25083 33175 ft 466 kts 150°
2026-04-22 21:09 55.49824 17.27437 32647 ft 463 kts 150°
2026-04-22 21:09 55.46933 17.29766 32128 ft 460 kts 150°
2026-04-22 21:10 55.44032 17.32110 31628 ft 457 kts 150°
2026-04-22 21:10 55.41149 17.34437 31121 ft 454 kts 150°
2026-04-22 21:10 55.38290 17.36737 30630 ft 451 kts 150°
2026-04-22 21:10 55.35437 17.39019 30139 ft 448 kts 150°
2026-04-22 21:11 55.32603 17.41280 29600 ft 445 kts 151°
2026-04-22 21:11 55.29789 17.43526 29042 ft 442 kts 151°
2026-04-22 21:11 55.26999 17.45751 28487 ft 439 kts 151°
2026-04-22 21:11 55.24223 17.47959 27960 ft 436 kts 151°
2026-04-22 21:12 55.21492 17.50118 27444 ft 434 kts 151°
2026-04-22 21:12 55.18738 17.52279 26923 ft 431 kts 152°
2026-04-22 21:12 55.15994 17.54400 26414 ft 429 kts 152°
2026-04-22 21:12 55.13261 17.56496 25920 ft 427 kts 152°
2026-04-22 21:13 55.10540 17.58574 25423 ft 425 kts 152°
2026-04-22 21:13 55.07864 17.60611 24948 ft 424 kts 153°
2026-04-22 21:13 55.05159 17.62661 24474 ft 423 kts 153°
2026-04-22 21:13 55.02457 17.64714 24007 ft 421 kts 153°
2026-04-22 21:14 54.99778 17.66792 23521 ft 418 kts 149°
2026-04-22 21:14 54.97310 17.69410 22984 ft 412 kts 139°
2026-04-22 21:14 54.95175 17.72666 22463 ft 405 kts 129°
2026-04-22 21:14 54.93264 17.76183 21942 ft 403 kts 128°
2026-04-22 21:15 54.91331 17.79716 21414 ft 402 kts 129°
2026-04-22 21:15 54.89398 17.83221 20906 ft 400 kts 129°
2026-04-22 21:15 54.87463 17.86707 20409 ft 398 kts 129°
2026-04-22 21:15 54.85558 17.90133 19916 ft 397 kts 129°
2026-04-22 21:16 54.83642 17.93580 19432 ft 394 kts 129°
2026-04-22 21:16 54.81746 17.96996 18956 ft 392 kts 129°
2026-04-22 21:16 54.79792 18.00312 18482 ft 393 kts 136°
2026-04-22 21:16 54.77618 18.03197 17952 ft 392 kts 139°
2026-04-22 21:17 54.75435 18.06043 17430 ft 391 kts 139°
2026-04-22 21:17 54.73291 18.08831 16907 ft 389 kts 139°
2026-04-22 21:17 54.71122 18.11650 16413 ft 387 kts 139°
2026-04-22 21:17 54.68976 18.14440 15906 ft 385 kts 140°
2026-04-22 21:18 54.66952 18.17378 15397 ft 379 kts 130°
2026-04-22 21:18 54.65192 18.20721 14910 ft 375 kts 128°
2026-04-22 21:18 54.63447 18.24077 14418 ft 374 kts 128°
2026-04-22 21:18 54.61708 18.27412 13945 ft 372 kts 128°
2026-04-22 21:19 54.59973 18.30732 13417 ft 371 kts 128°
2026-04-22 21:19 54.58263 18.33995 12891 ft 369 kts 128°
2026-04-22 21:19 54.56540 18.37275 12357 ft 365 kts 128°
2026-04-22 21:19 54.54874 18.40430 11831 ft 346 kts 128°
2026-04-22 21:20 54.53290 18.43422 11343 ft 330 kts 128°
2026-04-22 21:20 54.51768 18.46301 10812 ft 320 kts 128°
2026-04-22 21:20 54.50299 18.49087 10279 ft 316 kts 128°
2026-04-22 21:20 54.48831 18.51873 9723 ft 312 kts 128°
2026-04-22 21:21 54.47373 18.54635 9156 ft 310 kts 129°
2026-04-22 21:21 54.45931 18.57362 8579 ft 305 kts 129°
2026-04-22 21:21 54.44520 18.60026 8009 ft 296 kts 129°
2026-04-22 21:21 54.43159 18.62626 7458 ft 287 kts 125°
2026-04-22 21:22 54.42119 18.65433 6911 ft 276 kts 110°
2026-04-22 21:22 54.41375 18.68432 6376 ft 269 kts 108°
2026-04-22 21:22 54.40648 18.71368 5796 ft 265 kts 108°
2026-04-22 21:22 54.39929 18.74251 5229 ft 260 kts 108°
2026-04-22 21:23 54.39223 18.77088 4673 ft 256 kts 108°
2026-04-22 21:23 54.38535 18.79836 4147 ft 250 kts 108°
2026-04-22 21:23 54.37850 18.82549 3632 ft 246 kts 110°
2026-04-22 21:23 54.36796 18.85053 3137 ft 266 kts 141°
2026-04-22 21:24 54.35189 18.86306 3027 ft 249 kts 174°
2026-04-22 21:24 54.33498 18.86079 3031 ft 243 kts 200°
2026-04-22 21:24 54.32003 18.84812 3031 ft 238 kts 222°
2026-04-22 21:24 54.30895 18.82773 3031 ft 232 kts 244°
2026-04-22 21:25 54.30286 18.80269 3024 ft 225 kts 264°
2026-04-22 21:25 54.30215 18.77650 3030 ft 218 kts 283°
2026-04-22 21:25 54.30639 18.75194 3028 ft 214 kts 297°
2026-04-22 21:25 54.31222 18.72875 3018 ft 215 kts 297°
2026-04-22 21:26 54.31820 18.70495 3014 ft 215 kts 297°
2026-04-22 21:26 54.32397 18.68186 2899 ft 209 kts 297°
2026-04-22 21:26 54.32961 18.65924 2631 ft 203 kts 297°
2026-04-22 21:26 54.33507 18.63735 2379 ft 196 kts 297°
2026-04-22 21:27 54.34018 18.61678 2123 ft 178 kts 297°
2026-04-22 21:27 54.34475 18.59837 1914 ft 155 kts 297°
2026-04-22 21:27 54.34876 18.58224 1686 ft 141 kts 298°
2026-04-22 21:27 54.35255 18.56706 1486 ft 137 kts 297°
2026-04-22 21:28 54.35626 18.55216 1297 ft 135 kts 296°
2026-04-22 21:28 54.35994 18.53736 1105 ft 134 kts 294°
2026-04-22 21:28 54.36354 18.52283 920 ft 135 kts 292°
2026-04-22 21:28 54.36723 18.50799 726 ft 135 kts 292°
2026-04-22 21:29 54.37085 18.49320 561 ft 134 kts 292°
2026-04-22 21:29 54.37433 18.47927 470 ft 110 kts 293°
2026-04-22 21:29 54.37665 18.46990 456 ft 61 kts 292°
2026-04-22 21:29 54.37803 18.46430 458 ft 48 kts 294°
2026-04-22 21:30 54.37912 18.46026 456 ft 21 kts 301°
2026-04-22 21:30 54.37996 18.45849 455 ft 18 kts 316°
2026-04-22 21:30 54.38082 18.45734 455 ft 10 kts 325°
2026-04-22 21:30 54.38122 18.45706 455 ft 5 kts
2026-04-22 21:31 54.38145 18.45750 455 ft 6 kts 76°
2026-04-22 21:31 54.38130 18.45813 455 ft 6 kts 125°
2026-04-22 21:31 54.38111 18.45871 457 ft 7 kts 115°
2026-04-22 21:31 54.38095 18.45963 459 ft 7 kts 104°
2026-04-22 21:32 54.38077 18.46051 459 ft 9 kts 111°
2026-04-22 21:32 54.38045 18.46182 459 ft 13 kts 113°
2026-04-22 21:32 54.38008 18.46331 459 ft 14 kts 113°
2026-04-22 21:32 54.37972 18.46495 459 ft 14 kts 97°
2026-04-22 21:33 54.38019 18.46607 460 ft 11 kts 29°
2026-04-22 21:33 54.38067 18.46652 457 ft 5 kts 26°
2026-04-22 21:33 54.38093 18.46671 460 ft 3 kts 23°
2026-04-22 21:33 54.38100 18.46676 460 ft 0 kts 24°